TimeCDT,TemperatureF,Dew PointF,Humidity,Sea Level PressureIn,VisibilityMPH,Wind Direction,Wind SpeedMPH,Gust SpeedMPH,PrecipitationIn,Events,Conditions,WindDirDegrees,DateUTC
12:15 AM,61.7,58.6,90,30.07,10.0,East,5.8,-,N/A,,Clear,80,2013-06-14 05:15:00
12:35 AM,61.3,58.6,91,30.07,10.0,ENE,5.8,-,N/A,,Clear,70,2013-06-14 05:35:00
12:55 AM,59.0,56.5,91,30.08,10.0,ENE,4.6,-,N/A,,Clear,60,2013-06-14 05:55:00
1:15 AM,59.0,55.9,90,30.09,10.0,ENE,5.8,-,N/A,,Clear,70,2013-06-14 06:15:00
1:35 AM,59.0,55.8,89,30.10,10.0,ENE,3.5,-,N/A,,Clear,60,2013-06-14 06:35:00
1:55 AM,59.0,55.2,87,30.11,10.0,ENE,4.6,-,N/A,,Clear,70,2013-06-14 06:55:00
2:15 AM,57.4,53.8,88,30.11,10.0,ENE,5.8,-,N/A,,Clear,60,2013-06-14 07:15:00
2:35 AM,56.5,53.2,89,30.11,10.0,ENE,5.8,-,N/A,,Clear,60,2013-06-14 07:35:00
2:55 AM,56.3,53.1,89,30.11,10.0,ENE,5.8,-,N/A,,Clear,70,2013-06-14 07:55:00
3:15 AM,54.5,51.6,90,30.11,10.0,ENE,4.6,-,N/A,,Clear,60,2013-06-14 08:15:00
3:35 AM,54.0,51.1,90,30.10,10.0,NE,5.8,-,N/A,,Clear,50,2013-06-14 08:35:00
3:55 AM,54.0,51.1,90,30.10,10.0,ENE,5.8,-,N/A,,Clear,60,2013-06-14 08:55:00
4:15 AM,54.0,50.9,89,30.11,10.0,Calm,Calm,-,N/A,,Clear,0,2013-06-14 09:15:00
4:35 AM,54.0,50.7,89,30.11,10.0,Calm,Calm,-,N/A,,Clear,0,2013-06-14 09:35:00
4:55 AM,54.0,50.9,89,30.13,10.0,Calm,Calm,-,N/A,,Clear,0,2013-06-14 09:55:00
5:15 AM,54.0,50.7,89,30.12,10.0,ENE,3.5,-,N/A,,Clear,60,2013-06-14 10:15:00
5:35 AM,54.0,51.1,90,30.12,10.0,Calm,Calm,-,N/A,,Clear,0,2013-06-14 10:35:00
5:55 AM,54.0,50.4,88,30.13,10.0,Calm,Calm,-,N/A,,Clear,0,2013-06-14 10:55:00
6:15 AM,54.0,51.4,91,30.14,10.0,Calm,Calm,-,N/A,,Clear,0,2013-06-14 11:15:00
6:35 AM,56.1,53.4,91,30.14,10.0,Calm,Calm,-,N/A,,Clear,0,2013-06-14 11:35:00
6:55 AM,59.0,55.8,89,30.15,10.0,WSW,4.6,-,N/A,,Clear,240,2013-06-14 11:55:00
7:15 AM,59.0,54.9,86,30.16,10.0,West,5.8,-,N/A,,Clear,260,2013-06-14 12:15:00
7:35 AM,60.4,55.0,82,30.16,10.0,WNW,3.5,-,N/A,,Clear,300,2013-06-14 12:35:00
7:55 AM,61.2,54.0,77,30.17,10.0,Calm,Calm,-,N/A,,Clear,0,2013-06-14 12:55:00
8:15 AM,61.7,52.3,71,30.18,10.0,NNE,3.5,-,N/A,,Clear,20,2013-06-14 13:15:00
8:35 AM,63.7,53.8,70,30.18,10.0,Calm,Calm,-,N/A,,Clear,0,2013-06-14 13:35:00
8:55 AM,64.0,54.0,70,30.18,10.0,NE,4.6,-,N/A,,Clear,50,2013-06-14 13:55:00
9:15 AM,65.3,54.7,68,30.16,10.0,NE,9.2,-,N/A,,Clear,50,2013-06-14 14:15:00
9:35 AM,66.6,54.7,66,30.16,10.0,NE,5.8,-,N/A,,Clear,50,2013-06-14 14:35:00
9:55 AM,66.9,55.9,68,30.14,10.0,NE,9.2,-,N/A,,Clear,50,2013-06-14 14:55:00
10:15 AM,68.9,57.4,67,30.14,10.0,East,9.2,-,N/A,,Clear,80,2013-06-14 15:15:00
10:35 AM,69.3,57.0,65,30.13,10.0,East,4.6,-,N/A,,Clear,80,2013-06-14 15:35:00
10:55 AM,71.8,58.6,63,30.13,10.0,East,10.4,-,N/A,,Clear,100,2013-06-14 15:55:00
11:15 AM,74.3,60.1,61,30.12,10.0,ENE,8.1,-,N/A,,Clear,60,2013-06-14 16:15:00
11:35 AM,74.3,59.0,59,30.13,10.0,East,5.8,-,N/A,,Clear,90,2013-06-14 16:35:00
11:55 AM,74.3,58.3,57,30.14,10.0,ESE,6.9,-,N/A,,Clear,110,2013-06-14 16:55:00
12:15 PM,74.3,57.9,57,30.16,10.0,SE,4.6,-,N/A,,Clear,130,2013-06-14 17:15:00
12:35 PM,74.3,58.1,57,30.16,10.0,Calm,Calm,-,N/A,,Clear,0,2013-06-14 17:35:00
12:55 PM,74.3,57.2,55,30.15,10.0,SE,4.6,-,N/A,,Clear,140,2013-06-14 17:55:00
1:15 PM,74.5,55.9,52,30.15,10.0,ENE,3.5,-,N/A,,Clear,70,2013-06-14 18:15:00
1:35 PM,76.8,56.7,50,30.14,10.0,SSE,4.6,-,N/A,,Clear,150,2013-06-14 18:35:00
1:55 PM,76.5,58.5,54,30.14,10.0,SE,9.2,-,N/A,,Clear,130,2013-06-14 18:55:00
2:15 PM,76.5,58.1,53,30.12,10.0,Calm,Calm,-,N/A,,Clear,0,2013-06-14 19:15:00
2:35 PM,77.0,58.6,53,30.11,10.0,ESE,5.8,-,N/A,,Clear,110,2013-06-14 19:35:00
2:55 PM,77.5,57.0,49,30.10,10.0,Calm,Calm,-,N/A,,Clear,0,2013-06-14 19:55:00
3:15 PM,79.2,58.1,48,30.10,10.0,South,6.9,-,N/A,,Clear,170,2013-06-14 20:15:00
3:35 PM,79.3,59.5,51,30.09,10.0,East,5.8,-,N/A,,Clear,90,2013-06-14 20:35:00
3:55 PM,79.3,57.2,47,30.07,10.0,SE,6.9,-,N/A,,Clear,140,2013-06-14 20:55:00
4:15 PM,79.3,57.9,48,30.06,10.0,South,6.9,-,N/A,,Clear,170,2013-06-14 21:15:00
4:35 PM,79.3,56.8,46,30.06,10.0,SE,6.9,-,N/A,,Clear,140,2013-06-14 21:35:00
4:55 PM,79.3,57.9,48,30.06,10.0,SSE,6.9,-,N/A,,Clear,150,2013-06-14 21:55:00
5:15 PM,79.3,59.0,50,30.04,10.0,SSE,8.1,-,N/A,,Clear,150,2013-06-14 22:15:00
5:35 PM,79.3,59.2,50,30.04,10.0,SE,9.2,-,N/A,,Clear,130,2013-06-14 22:35:00
5:55 PM,77.0,57.7,51,30.03,10.0,SE,8.1,-,N/A,,Clear,140,2013-06-14 22:55:00
6:15 PM,76.6,58.8,54,30.03,10.0,ESE,6.9,-,N/A,,Clear,120,2013-06-14 23:15:00
6:35 PM,75.4,57.0,53,30.02,10.0,ESE,8.1,-,N/A,,Clear,120,2013-06-14 23:35:00
6:55 PM,74.3,57.0,55,30.03,10.0,SE,6.9,-,N/A,,Clear,130,2013-06-14 23:55:00
7:15 PM,74.3,56.8,54,30.04,10.0,SE,6.9,-,N/A,,Clear,130,2013-06-15 00:15:00
7:35 PM,74.3,59.0,59,30.05,10.0,ESE,4.6,-,N/A,,Clear,120,2013-06-15 00:35:00
7:55 PM,74.3,59.0,59,30.05,10.0,ESE,3.5,-,N/A,,Clear,110,2013-06-15 00:55:00
8:15 PM,74.3,61.7,65,30.04,10.0,ESE,4.6,-,N/A,,Clear,110,2013-06-15 01:15:00
8:35 PM,74.3,62.4,66,30.05,10.0,ESE,3.5,-,N/A,,Mostly Cloudy,110,2013-06-15 01:35:00
8:55 PM,69.3,60.8,74,30.04,10.0,ESE,5.8,-,N/A,,Scattered Clouds,110,2013-06-15 01:55:00
9:15 PM,69.3,60.6,74,30.04,10.0,ESE,5.8,-,N/A,,Clear,120,2013-06-15 02:15:00
9:35 PM,69.3,60.1,72,30.04,10.0,SE,4.6,-,N/A,,Clear,130,2013-06-15 02:35:00
9:55 PM,69.3,60.8,74,30.03,10.0,ESE,6.9,-,N/A,,Clear,120,2013-06-15 02:55:00
10:15 PM,67.3,59.5,76,30.02,10.0,ESE,5.8,-,N/A,,Clear,120,2013-06-15 03:15:00
10:35 PM,67.1,59.5,77,30.02,10.0,ESE,5.8,-,N/A,,Clear,110,2013-06-15 03:35:00
10:55 PM,65.3,59.7,82,30.03,10.0,East,4.6,-,N/A,,Clear,90,2013-06-15 03:55:00
11:15 PM,64.0,59.0,84,30.02,10.0,East,6.9,-,N/A,,Clear,90,2013-06-15 04:15:00
11:35 PM,65.3,59.4,81,30.02,10.0,East,8.1,-,N/A,,Clear,80,2013-06-15 04:35:00
11:55 PM,65.3,56.7,74,30.02,10.0,East,12.7,-,N/A,,Clear,100,2013-06-15 04:55:00